FW2347 Weather Reports


Display with metric or nautical units.
time (UTC)temp
F
wind
direction
speed
MPH
gust
MPH
rain 1hr
in
rain 24hr
in
rain mn
in
humidity
%
barometer
mb
20260506154505 66 279 0.0 0.0 0.00 0.00 0.00 50 1009.1
20260506153012 66 319 0.0 0.0 0.00 0.00 0.00 50 1009.2
20260506151533 66 346 0.0 0.0 0.00 0.00 0.00 51 1009.2
20260506150028 66 317 0.0 0.0 0.00 0.00 0.00 51 1009.3
20260506144539 66 13 0.0 0.0 0.00 0.00 0.00 51 1009.3
20260506143047 66 309 0.0 0.0 0.00 0.00 0.00 52 1009.4
20260506141558 66 274 0.0 0.0 0.00 0.00 0.00 51 1009.9
20260506140010 65 309 0.0 0.0 0.00 0.00 0.00 51 1009.9
20260506134545 66 321 0.0 0.0 0.00 0.00 0.00 51 1010.1
20260506133056 65 291 0.0 0.0 0.00 0.00 0.00 52 1010.1
20260506131514 65 317 0.0 0.0 0.00 0.00 0.00 54 1010.2
20260506130015 65 296 0.0 0.0 0.00 0.00 0.00 54 1010.3
20260506124532 64 259 0.0 0.0 0.00 0.00 0.00 53 1010.4
20260506123051 65 14 0.0 0.0 0.00 0.00 0.00 54 1010.5
20260506121512 64 350 0.0 0.0 0.00 0.00 0.00 58 1010.4
20260506120024 63 292 0.0 0.0 0.00 0.00 0.00 60 1010.5
20260506114549 63 255 0.0 0.0 0.00 0.00 0.00 65 1010.5
20260506113048 62 211 0.0 0.0 0.00 0.00 0.00 69 1010.6
20260506111509 60 229 0.0 0.0 0.00 0.00 0.00 71 1010.9
20260506110049 61 222 0.0 0.0 0.00 0.00 0.00 71 1011.1
20260506104615 60 284 0.0 0.0 0.00 0.00 0.00 72 1011.1
20260506103106 60 336 0.0 0.0 0.00 0.00 0.00 72 1011.3
20260506101518 59 268 0.0 0.0 0.00 0.00 0.00 72 1011.4
20260506100011 58 269 0.0 0.0 0.00 0.00 0.00 72 1011.6
20260506094552 57 313 0.0 0.0 0.00 0.00 0.00 71 1011.8
20260506093104 56 281 0.0 0.0 0.00 0.00 0.00 67 1011.8
20260506091502 55 209 0.0 0.0 0.00 0.00 0.00 59 1011.8
20260506090001 55 250 0.0 0.0 0.00 0.00 0.00 47 1011.7
20260506084521 53 246 0.0 0.0 0.00 0.00 0.00 34 1011.8
20260506083026 51 234 0.0 0.0 0.00 0.00 0.00 30 1011.7
20260506081540 51 273 0.0 0.0 0.00 0.00 0.00 26 1011.6
20260506073019 50 278 0.0 0.0 0.00 0.00 0.00 13 1011.7
20260506071555 49 272 0.0 0.0 0.00 0.00 0.00 11 1011.6
20260506061522 47 245 0.0 0.0 0.00 0.00 0.00 3 1011.4
20260506050113 43 231 0.0 0.0 0.00 0.00 0.00 6 1010.7
20260506044608 41 231 0.0 0.0 0.00 0.00 0.00 7 1010.4
20260506043004 41 231 0.0 0.0 0.00 0.00 0.00 8 1010.3
20260506041529 41 230 0.0 0.0 0.00 0.00 0.00 8 1010.3
20260506040039 41 231 0.0 0.0 0.00 0.00 0.00 9 1010.4
20260506034546 40 230 0.0 0.0 0.00 0.00 0.00 9 1010.3
20260506033051 41 231 0.0 0.0 0.00 0.00 0.00 9 1010.2
20260506031607 40 231 0.0 0.0 0.00 0.00 0.00 10 1010.1
20260506030008 40 231 0.0 0.0 0.00 0.00 0.00 10 1010.2
20260506024509 41 231 0.0 0.0 0.00 0.00 0.00 10 1010.1
20260506023033 41 230 0.0 0.0 0.00 0.00 0.00 11 1010.1
20260506021548 42 231 0.0 0.0 0.00 0.00 0.00 11 1010.1
20260506020100 41 230 0.0 0.0 0.00 0.00 0.00 11 1010.0
20260506014507 41 231 0.0 0.0 0.00 0.01 0.00 12 1010.0
20260506013022 41 231 0.0 0.0 0.00 0.01 0.00 12 1010.0
20260506011507 42 231 0.0 0.0 0.00 0.01 0.00 12 1010.0
20260506010030 42 231 0.0 0.0 0.00 0.01 0.00 13 1010.1
20260506004558 43 231 0.0 0.0 0.00 0.01 0.00 13 1010.3
20260506003103 43 231 0.0 0.0 0.00 0.01 0.00 13 1010.4
20260506001513 43 231 0.0 0.0 0.00 0.01 0.00 14 1010.4
20260506000036 44 230 0.0 0.0 0.00 0.01 0.00 14 1010.5
20260505234516 44 230 0.0 0.0 0.00 0.01 0.00 15 1010.5
20260505233025 45 231 0.0 0.0 0.00 0.01 0.00 15 1010.5
20260505231549 45 231 0.0 0.0 0.00 0.01 0.00 15 1010.5
20260505230037 46 231 0.0 0.0 0.00 0.01 0.00 16 1010.3
20260505224549 46 231 0.0 0.0 0.00 0.01 0.00 17 1010.5
20260505223048 46 231 0.0 0.0 0.00 0.01 0.00 18 1010.6
20260505221604 47 231 0.0 0.0 0.00 0.01 0.00 18 1010.6
20260505220112 47 230 0.0 0.0 0.00 0.01 0.00 20 1010.9
20260505214547 48 230 0.0 0.0 0.00 0.04 0.01 21 1010.9
20260505213106 49 231 0.0 0.0 0.00 0.04 0.01 23 1010.9
20260505211509 49 230 0.0 0.0 0.00 0.04 0.01 24 1010.8
20260505210020 50 230 0.0 0.0 0.00 0.04 0.01 27 1010.7
20260505204540 50 231 0.0 0.0 0.00 0.25 0.01 31 1010.4
20260505203057 50 230 0.0 0.0 0.00 0.25 0.01 36 1010.4
20260505201541 50 233 0.0 0.0 0.00 0.25 0.01 43 1010.0
20260505200040 50 233 0.0 0.0 0.00 0.25 0.01 48 1009.8
20260505194606 50 233 0.0 0.0 0.00 0.25 0.01 54 1009.6
20260505193034 51 233 0.0 0.0 0.00 0.25 0.01 61 1009.4
20260505191524 52 233 0.0 0.0 0.00 0.25 0.01 67 1009.3
20260505190032 53 233 0.0 0.0 0.00 0.25 0.01 69 1009.2
20260505184542 53 233 0.0 0.0 0.00 0.25 0.01 71 1009.0
20260505183046 54 244 0.0 0.0 0.00 0.25 0.01 72 1009.0
20260505181612 54 267 0.0 0.0 0.00 0.25 0.01 72 1009.1
20260505180010 55 245 0.0 0.0 0.00 0.25 0.01 73 1008.7
20260505174537 55 220 0.0 0.0 0.00 0.25 0.01 73 1008.7
20260505173039 56 219 0.0 0.0 0.00 0.25 0.01 73 1008.5
20260505171548 57 277 0.0 0.0 0.00 0.25 0.01 72 1008.7
20260505170014 58 244 0.0 0.0 0.00 0.25 0.01 71 1008.6
20260505164534 60 248 0.0 0.0 0.00 0.25 0.01 69 1008.1
20260505163116 61 221 0.0 0.0 0.00 0.25 0.01 70 1008.1
20260505161520 62 245 0.0 0.0 0.00 0.25 0.01 70 1008.0